Pearl River, LA

8:29 PM CST on December 08, 2016 (GMT -0600)
Slidell

Weather History for KASD - February, 2013

Change the Weather History Date:

Monday, February 4, 2013

  Actual Average (KNEW) Record (KNEW)
Temperature  
Mean Temperature 52 °F -  
Max Temperature 63 °F 61 °F 81 °F (1957)
Min Temperature 41 °F 47 °F 19 °F (1970)
Degree Days  
Heating Degree Days 13    
Growing Degree Days 2 (Base 50)    
Moisture  
Dew Point 50 °F    
Average Humidity 85    
Maximum Humidity 100    
Minimum Humidity 50    
Precipitation  
Precipitation 0.57 in - - ()
Sea Level Pressure  
Sea Level Pressure 30.02 in    
Wind  
Wind Speed 2 mph (ESE)    
Max Wind Speed 7 mph    
Max Gust Speed -    
Visibility 8 miles    
Events Rain    
Averages and records for this station are not official NWS values.
T = Trace of Precipitation, MM = Missing Value Source: NWS Daily Summary

Daily Weather History Graph

Daily Weather History Graph

Search for Another Location

Airport or City:

Trip Planner

Search our weather history database for the weather conditions in past years. The results will help you decide how hot, cold, wet, or windy it might be!

Date:

Astronomy

Feb. 04, 2013 Rise Set
Actual Time 6:48 AM CST 5:38 PM CST
Civil Twilight 6:23 AM CST 6:03 PM CST
Nautical Twilight 5:54 AM CST 6:32 PM CST
Astronomical Twilight 5:26 AM CST 7:00 PM CST
Moon 1:18 AM CST (2/4) 12:08 PM CST (2/4)
Length of Visible Light 11h 40m
Length of Day
10h 50m
Last Quarter, 37% of the Moon is Illuminated
Feb 4
Last Quarter
Feb 10
New
Feb 17
First Quarter
Feb 25
Full
Mar 4
Last Quarter

Hourly Weather History & Observations

Time (CST) Temp. Dew Point Humidity Pressure Visibility Wind Dir Wind Speed Gust Speed Precip Events Conditions
12:53 AM 41.0 °F 39.9 °F 96% 30.12 in 10.0 mi Calm Calm - N/A   Clear
1:53 AM 41.0 °F 39.9 °F 96% 30.10 in 10.0 mi Calm Calm - N/A   Clear
2:53 AM 41.0 °F 39.0 °F 93% 30.10 in 10.0 mi Calm Calm - N/A   Clear
4:53 AM 46.9 °F 39.0 °F 74% 30.08 in 10.0 mi East 3.5 mph - N/A   Clear
6:53 AM 46.0 °F 39.9 °F 79% 30.08 in 10.0 mi Calm Calm - N/A   Clear
7:53 AM 46.9 °F 43.0 °F 86% 30.09 in 10.0 mi Calm Calm - N/A   Clear
8:53 AM 51.1 °F 42.1 °F 71% 30.10 in 10.0 mi Calm Calm - N/A   Clear
9:53 AM 55.0 °F 46.0 °F 72% 30.11 in 10.0 mi Calm Calm - N/A   Clear
10:53 AM 59.0 °F 46.9 °F 64% 30.09 in 10.0 mi Variable 4.6 mph - N/A   Clear
11:53 AM 61.0 °F 48.0 °F 62% 30.07 in 10.0 mi ESE 3.5 mph - N/A   Scattered Clouds
12:53 PM 62.1 °F 46.9 °F 58% 30.04 in 10.0 mi SE 3.5 mph - N/A   Mostly Cloudy
1:53 PM 63.0 °F 44.1 °F 50% 30.01 in 10.0 mi SE 3.5 mph - N/A   Mostly Cloudy
2:53 PM 62.1 °F 48.0 °F 60% 30.00 in 10.0 mi ESE 6.9 mph - N/A   Overcast
3:53 PM 61.0 °F 48.9 °F 64% 29.99 in 10.0 mi ENE 3.5 mph - N/A   Mostly Cloudy
4:53 PM 57.0 °F 51.1 °F 81% 29.99 in 10.0 mi ESE 3.5 mph - 0.03 in Rain Light Rain
5:53 PM 55.0 °F 53.1 °F 93% 29.99 in 10.0 mi ESE 3.5 mph - 0.05 in   Overcast
6:53 PM 55.0 °F 53.1 °F 93% 29.99 in 10.0 mi ESE 3.5 mph - 0.02 in Rain Light Rain
7:53 PM 55.0 °F 55.0 °F 100% 29.99 in 6.0 mi SE 5.8 mph - 0.02 in Rain Light Rain
8:53 PM 57.0 °F 55.9 °F 96% 29.99 in 6.0 mi SE 6.9 mph - 0.10 in Rain Light Rain
9:27 PM 57.2 °F 57.2 °F 100% 29.98 in 9.0 mi East 5.8 mph - 0.01 in Rain Light Rain
9:43 PM 57.2 °F 57.2 °F 100% 29.98 in 8.0 mi ESE 3.5 mph - 0.02 in Rain Light Rain
9:53 PM 57.0 °F 57.0 °F 100% 29.98 in 4.0 mi Calm Calm - 0.05 in Rain Rain
10:07 PM 57.2 °F 57.2 °F 100% 29.98 in 4.0 mi Calm Calm - 0.05 in Rain Rain
10:18 PM 57.2 °F 57.2 °F 100% 29.98 in 4.0 mi East 4.6 mph - 0.08 in Rain Rain
10:39 PM 57.2 °F 57.2 °F 100% 29.97 in 3.0 mi NNW 3.5 mph - 0.13 in Rain Rain
10:53 PM 57.0 °F 57.0 °F 100% 29.98 in 3.0 mi Calm Calm - 0.20 in Rain Light Rain
11:43 PM 57.2 °F 57.2 °F 100% 29.96 in 7.0 mi Calm Calm - 0.10 in Rain Light Rain
11:53 PM 57.9 °F 57.0 °F 97% 29.96 in 10.0 mi East 4.6 mph - 0.10 in Rain Light Rain